Simultaneous Nadir Overpasses (SNOs) Predictions

Prediction of SNOs between AQUA and NOAA-19 Satellite Orbit:

Table of predicted SNOs for the next 14.0 days since TLE Epoch: 12/9/2023
Index Date (AQUA) Time (AQUA) Lat,Lon (AQUA) SZA (AQUA ) Date (NOAA-19) Time (NOAA-19) Lat,Lon (NOAA-19) SZA (NOAA-19 ) Distance(km) Time Diff (sec)
1 12/10/2023 14:42:44 76.00, -46.74 98.88 12/10/2023 14:42:05 76.03, -46.74 98.91 3.09 39
2 12/10/2023 15:32:08 -76.05, 120.75 81.07 12/10/2023 15:33:04 -76.05, 120.60 81.07 4.08 56
3 12/12/2023 19:23:42 76.03,-117.06 99.10 12/12/2023 19:23:20 76.00,-117.08 99.07 3.75 22
4 12/12/2023 20:13:06 -76.08, 50.44 80.86 12/12/2023 20:14:18 -76.10, 50.51 80.85 2.54 72
5 12/15/2023 00:04:39 76.05, 172.69 99.25 12/15/2023 00:04:34 76.01, 172.72 99.22 3.79 5
6 12/17/2023 03:56:08 -75.88, -64.64 80.82 12/17/2023 03:54:56 -75.79, -65.59 80.89 27.76 72
7 12/17/2023 04:45:35 76.04, 102.52 99.35 12/17/2023 04:45:48 76.02, 102.49 99.34 1.95 13
8 12/19/2023 08:37:06 -75.99,-135.19 80.63 12/19/2023 08:36:06 -76.00,-135.11 80.62 2.18 60
9 12/19/2023 09:26:31 76.05, 32.26 99.44 12/19/2023 09:27:02 76.02, 32.25 99.41 3.55 31
10 12/21/2023 13:18:01 -75.98, 154.64 80.61 12/21/2023 13:17:21 -75.97, 154.56 80.61 2.36 40



Historial Predications of SNOs between AQUA and NOAA-19
